EW0890 Weather Reports


time (UTC)temp
C
wind
direction
speed
KPH
gust
KPH
rain 1hr
cm
rain 24hr
cm
rain mn
cm
humidity
%
barometer
mb
20260903085014 23 297 1.6 3.2 0.00 0.00 0.00 88 1014.6
20260903084601 23 293 1.6 3.2 0.00 0.00 0.00 88 1014.7
20260903084533 23 295 1.6 3.2 0.00 0.00 0.00 88 1014.7
20260903084016 23 293 1.6 4.8 0.00 0.00 0.00 88 1014.6
20260903083516 23 281 1.6 4.8 0.00 0.00 0.00 88 1014.7
20260903083105 23 254 1.6 3.2 0.00 0.00 0.00 88 1014.8
20260903083032 23 291 1.6 3.2 0.00 0.00 0.00 88 1014.7
20260903082505 23 290 0.0 3.2 0.00 0.00 0.00 88 1014.7
20260903082007 23 311 1.6 3.2 0.00 0.00 0.00 87 1014.6
20260903081625 23 274 1.6 3.2 0.00 0.00 0.00 87 1014.9
20260903081520 23 271 1.6 3.2 0.00 0.00 0.00 87 1014.7
20260903081008 23 264 1.6 3.2 0.00 0.00 0.00 87 1014.7
20260903080510 23 275 1.6 3.2 0.00 0.00 0.00 87 1014.8
20260903080105 23 270 1.6 4.8 0.00 0.00 0.00 87 1014.9
20260903080027 23 288 1.6 4.8 0.00 0.00 0.00 87 1014.7
20260903075512 23 264 1.6 4.8 0.00 0.00 0.00 87 1014.7
20260903075013 23 245 1.6 4.8 0.00 0.00 0.00 87 1014.7
20260903074610 23 205 1.6 4.8 0.00 0.00 0.00 87 1014.9
20260903074530 23 270 1.6 4.8 0.00 0.00 0.00 87 1014.7
20260903074020 23 284 1.6 4.8 0.00 0.00 0.00 87 1014.7
20260903073519 23 277 1.6 4.8 0.00 0.00 0.00 86 1014.7
20260903073135 23 258 1.6 4.8 0.00 0.00 0.00 86 1014.8
20260903073033 23 259 1.6 4.8 0.00 0.00 0.00 86 1014.6
20260903072518 24 286 1.6 4.8 0.00 0.00 0.00 86 1014.6
20260903072021 24 304 1.6 4.8 0.00 0.00 0.00 86 1014.7
20260903071619 24 262 1.6 4.8 0.00 0.00 0.00 85 1014.9
20260903071534 24 272 1.6 4.8 0.00 0.00 0.00 85 1014.7
20260903071009 24 283 1.6 6.4 0.00 0.00 0.00 85 1014.7
20260903070510 24 278 1.6 6.4 0.00 0.00 0.00 85 1014.8
20260903070100 24 283 1.6 4.8 0.00 0.00 0.00 85 1014.9
20260903070028 24 285 1.6 4.8 0.00 0.00 0.00 85 1014.7
20260903065511 24 274 1.6 4.8 0.00 0.00 0.00 85 1014.7
20260903065012 24 240 1.6 4.8 0.00 0.00 0.00 85 1014.8
20260903064601 25 276 1.6 4.8 0.00 0.00 0.00 85 1014.9
20260903064527 25 311 1.6 4.8 0.00 0.00 0.00 85 1014.7
20260903064012 25 288 1.6 4.8 0.00 0.00 0.00 84 1014.7
20260903063512 25 278 1.6 4.8 0.00 0.00 0.00 84 1014.7
20260903063103 25 288 1.6 4.8 0.00 0.00 0.00 84 1015.0
20260903063032 25 281 1.6 4.8 0.00 0.00 0.00 84 1014.8
20260903062504 25 258 1.6 3.2 0.00 0.00 0.00 84 1014.8
20260903062007 25 278 1.6 3.2 0.00 0.00 0.00 84 1014.7
20260903061604 25 278 1.6 3.2 0.00 0.00 0.00 84 1014.9
20260903061512 25 233 1.6 3.2 0.00 0.00 0.00 84 1014.8
20260903061008 25 286 1.6 3.2 0.00 0.00 0.00 84 1014.8
20260903060508 25 271 0.0 3.2 0.00 0.00 0.00 84 1014.8
20260903060146 25 294 1.6 3.2 0.00 0.00 0.00 84 1014.8
20260903060018 25 297 1.6 3.2 0.00 0.00 0.00 84 1014.7
20260903055509 25 282 1.6 3.2 0.00 0.00 0.00 84 1014.7
20260903055013 25 277 1.6 3.2 0.00 0.00 0.00 84 1014.7
20260903054600 25 257 1.6 3.2 0.00 0.00 0.00 85 1014.8
20260903054532 25 264 1.6 3.2 0.00 0.00 0.00 85 1014.7
20260903054010 25 286 0.0 3.2 0.00 0.00 0.00 85 1014.6
20260903053512 25 290 1.6 3.2 0.00 0.00 0.00 86 1014.7
20260903053102 25 292 1.6 3.2 0.00 0.00 0.00 86 1014.7
20260903053031 25 280 1.6 3.2 0.00 0.00 0.00 87 1014.5
20260903052513 24 234 0.0 3.2 0.00 0.00 0.00 87 1014.5
20260903052017 24 288 0.0 0.0 0.00 0.00 0.00 88 1014.6
20260903051609 25 0 0.0 0.0 0.00 0.00 0.00 88 1014.7
20260903051534 25 271 0.0 0.0 0.00 0.00 0.00 88 1014.6
20260903051003 25 274 0.0 0.0 0.00 0.00 0.00 88 1014.4
20260903050503 25 255 0.0 3.2 0.00 0.00 0.00 87 1014.4
20260903050105 25 0 0.0 3.2 0.00 0.00 0.00 87 1014.7
20260903050016 25 279 0.0 3.2 0.00 0.00 0.00 87 1014.6
20260903045507 25 277 0.0 1.6 0.00 0.00 0.00 88 1014.5
20260903045006 25 280 0.0 1.6 0.00 0.00 0.00 87 1014.3
20260903044604 25 283 0.0 4.8 0.00 0.00 0.00 87 1014.6
20260903044521 25 282 0.0 3.2 0.00 0.00 0.00 87 1014.4
20260903044010 25 282 0.0 4.8 0.00 0.00 0.00 87 1014.4
20260903043514 25 281 1.6 4.8 0.00 0.00 0.00 87 1014.4
20260903043057 25 0 0.0 0.0 0.00 0.00 0.00 87 1014.5
20260903043029 25 274 0.0 0.0 0.00 0.00 0.00 87 1014.2
20260903042511 25 266 0.0 0.0 0.00 0.00 0.00 88 1014.2
20260903042013 25 259 0.0 1.6 0.00 0.00 0.00 88 1014.3
20260903041602 25 0 0.0 1.6 0.00 0.00 0.00 89 1014.4
20260903041532 25 244 0.0 1.6 0.00 0.00 0.00 89 1014.4
20260903041014 25 185 0.0 1.6 0.00 0.00 0.00 89 1014.3
20260903040517 25 262 0.0 1.6 0.00 0.00 0.00 90 1014.3
20260903040108 25 310 0.0 1.6 0.00 0.00 0.00 90 1014.4
20260903040011 25 319 0.0 1.6 0.00 0.00 0.00 90 1014.4
20260903035504 25 193 0.0 0.0 0.00 0.00 0.00 90 1014.4
20260903035005 25 192 0.0 0.0 0.00 0.00 0.00 90 1014.3
20260903034601 25 0 0.0 0.0 0.00 0.00 0.00 90 1014.4
20260903034517 25 195 0.0 0.0 0.00 0.00 0.00 90 1014.3
20260903034008 25 251 0.0 0.0 0.00 0.00 0.00 90 1014.3
20260903033507 25 207 0.0 1.6 0.00 0.00 0.00 90 1014.3
20260903033103 25 0 0.0 1.6 0.00 0.00 0.00 90 1014.4
20260903033031 25 196 0.0 1.6 0.00 0.00 0.00 90 1014.2
20260903032509 25 258 0.0 1.6 0.00 0.00 0.00 90 1014.4
20260903032014 25 259 0.0 1.6 0.00 0.00 0.00 90 1014.4
20260903031559 25 0 0.0 1.6 0.00 0.00 0.00 91 1014.4
20260903031532 25 260 0.0 1.6 0.00 0.00 0.00 91 1014.3
20260903031013 25 160 0.0 0.0 0.00 0.00 0.00 91 1014.2
20260903030517 25 233 0.0 0.0 0.00 0.00 0.00 92 1014.2
20260903030106 25 0 0.0 0.0 0.00 0.00 0.00 92 1014.4
20260903030032 25 233 0.0 0.0 0.00 0.00 0.00 92 1014.2
20260903025518 25 233 0.0 0.0 0.00 0.00 0.00 92 1014.2
20260903025016 25 233 0.0 0.0 0.00 0.00 0.00 92 1014.2
20260903024604 25 0 0.0 0.0 0.00 0.00 0.00 92 1014.4
20260903024509 25 233 0.0 0.0 0.00 0.00 0.00 92 1014.2
20260903024004 25 233 0.0 0.0 0.00 0.00 0.00 92 1014.3
20260903023507 25 257 0.0 0.0 0.00 0.00 0.00 92 1014.2
20260903023109 25 0 0.0 0.0 0.00 0.00 0.00 92 1014.5
20260903023021 25 257 0.0 0.0 0.00 0.00 0.00 92 1014.2
20260903022508 25 257 0.0 0.0 0.00 0.00 0.00 92 1014.2
20260903022011 25 257 0.0 0.0 0.00 0.00 0.00 92 1014.2
20260903021609 25 0 0.0 0.0 0.00 0.00 0.00 92 1014.5
20260903021534 25 257 0.0 0.0 0.00 0.00 0.00 92 1014.2
20260903021016 25 257 0.0 0.0 0.00 0.00 0.00 92 1014.2
20260903020513 26 257 0.0 0.0 0.00 0.00 0.00 92 1014.2
20260903020105 26 0 0.0 0.0 0.00 0.00 0.00 91 1014.4
20260903020031 26 257 0.0 0.0 0.00 0.00 0.00 91 1014.2
20260903015516 26 257 0.0 0.0 0.00 0.00 0.00 92 1014.2
20260903015014 26 257 0.0 0.0 0.00 0.00 0.00 92 1014.1
20260903014609 26 0 0.0 0.0 0.00 0.00 0.00 92 1014.4
20260903014535 26 257 0.0 0.0 0.00 0.00 0.00 92 1014.1
20260903014018 26 255 0.0 0.0 0.00 0.00 0.00 91 1014.1
20260903013519 26 255 0.0 0.0 0.00 0.00 0.00 91 1014.0
20260903013109 26 0 0.0 0.0 0.00 0.00 0.00 91 1014.2
20260903013014 26 255 0.0 0.0 0.00 0.00 0.00 91 1014.0
20260903012508 26 255 0.0 0.0 0.00 0.00 0.00 90 1014.0
20260903012009 26 255 0.0 0.0 0.00 0.00 0.00 90 1014.0
20260903011604 27 0 0.0 0.0 0.00 0.00 0.00 90 1014.1
20260903011521 27 255 0.0 0.0 0.00 0.00 0.00 90 1014.0
20260903011007 27 255 0.0 0.0 0.00 0.00 0.00 89 1013.9
20260903010513 27 255 0.0 0.0 0.00 0.00 0.00 89 1013.9
20260903010107 27 0 0.0 0.0 0.00 0.00 0.00 88 1014.1
20260903010026 27 255 0.0 0.0 0.00 0.00 0.00 88 1013.8
20260903005512 27 255 0.0 0.0 0.00 0.00 0.00 87 1013.9
20260903005012 28 255 0.0 0.0 0.00 0.00 0.00 86 1013.9
20260903004604 28 0 0.0 0.0 0.00 0.00 0.00 85 1014.0
20260903004536 28 255 0.0 0.0 0.00 0.00 0.00 85 1013.8
20260903004014 28 255 0.0 0.0 0.00 0.00 0.00 84 1013.8
20260903003517 29 255 0.0 0.0 0.00 0.00 0.00 83 1013.8
20260903003110 30 0 0.0 0.0 0.00 0.00 0.00 81 1014.0
20260903003032 30 255 0.0 0.0 0.00 0.00 0.00 81 1013.7
20260903002517 30 255 0.0 0.0 0.00 0.00 0.00 80 1013.8
20260903002018 31 255 0.0 0.0 0.00 0.00 0.00 77 1013.9
20260903001622 31 0 0.0 0.0 0.00 0.00 0.00 75 1014.1
20260903001517 31 255 0.0 0.0 0.00 0.00 0.00 75 1014.0
20260903001008 32 255 0.0 0.0 0.00 0.00 0.00 73 1013.9
20260903000510 32 255 0.0 0.0 0.00 0.00 0.00 71 1013.9
20260903000108 33 0 0.0 0.0 0.00 0.00 0.00 70 1014.1
20260903000021 33 255 0.0 0.0 0.00 0.00 0.00 70 1013.9
20260902235510 33 255 0.0 0.0 0.00 0.00 0.00 69 1013.9
20260902235016 33 255 0.0 0.0 0.00 0.00 0.00 68 1013.9
20260902234627 34 0 0.0 0.0 0.00 0.00 0.00 67 1014.1
20260902234527 34 255 0.0 0.0 0.00 0.00 0.00 67 1014.0
20260902234016 34 255 0.0 0.0 0.00 0.00 0.00 66 1013.9
20260902233516 34 255 0.0 0.0 0.00 0.00 0.00 66 1014.0
20260902233104 34 0 0.0 0.0 0.00 0.00 0.00 66 1014.2
20260902233032 34 255 0.0 0.0 0.00 0.00 0.00 66 1014.0
20260902232520 34 255 0.0 0.0 0.00 0.00 0.00 66 1014.0
20260902232017 34 255 0.0 0.0 0.00 0.00 0.00 66 1014.0
20260902231625 33 0 0.0 0.0 0.00 0.00 0.00 65 1014.2
20260902231532 33 255 0.0 0.0 0.00 0.00 0.00 65 1013.9
20260902231021 34 255 0.0 0.0 0.00 0.00 0.00 64 1014.0
20260902230518 34 255 0.0 0.0 0.00 0.00 0.00 64 1014.0
20260902230115 34 0 0.0 0.0 0.00 0.00 0.00 65 1014.3
20260902230016 34 267 0.0 0.0 0.00 0.00 0.00 65 1014.0
20260902225510 34 267 0.0 0.0 0.00 0.00 0.00 64 1014.0
20260902225012 33 272 0.0 0.0 0.00 0.00 0.00 65 1014.0
20260902224606 33 0 0.0 1.6 0.00 0.00 0.00 65 1014.3
20260902224526 33 271 0.0 1.6 0.00 0.00 0.00 65 1014.1
20260902224011 33 231 0.0 1.6 0.00 0.00 0.00 63 1014.1
20260902223512 33 262 0.0 4.8 0.00 0.00 0.00 63 1014.1
20260902223105 33 275 1.6 4.8 0.00 0.00 0.00 63 1014.4
20260902223030 33 274 1.6 4.8 0.00 0.00 0.00 62 1014.1
20260902222513 33 274 1.6 4.8 0.00 0.00 0.00 64 1014.2
20260902222016 33 265 1.6 4.8 0.00 0.00 0.00 63 1014.1
20260902221605 33 0 1.6 6.4 0.00 0.00 0.00 64 1014.3
20260902221531 33 285 1.6 6.4 0.00 0.00 0.00 64 1014.1
20260902221019 33 278 3.2 6.4 0.00 0.00 0.00 61 1014.1
20260902220519 33 285 3.2 6.4 0.00 0.00 0.00 62 1014.2
20260902220113 33 276 1.6 6.4 0.00 0.00 0.00 63 1014.5
20260902220036 33 251 1.6 6.4 0.00 0.00 0.00 63 1014.2
20260902215520 33 240 1.6 6.4 0.00 0.00 0.00 62 1014.1
20260902215016 33 213 1.6 8.0 0.00 0.00 0.00 62 1014.2
20260902214614 33 297 3.2 8.0 0.00 0.00 0.00 61 1014.5
20260902214528 33 281 4.8 8.0 0.00 0.00 0.00 61 1014.2
20260902214012 33 271 1.6 8.0 0.00 0.00 0.00 62 1014.2
20260902213511 33 278 3.2 8.0 0.00 0.00 0.00 62 1014.2
20260902213101 33 293 1.6 8.0 0.00 0.00 0.00 64 1014.5
20260902213030 33 259 1.6 6.4 0.00 0.00 0.00 64 1014.3
20260902212512 33 293 3.2 8.0 0.00 0.00 0.00 62 1014.3
20260902212013 33 302 3.2 8.0 0.00 0.00 0.00 62 1014.3
20260902211604 33 261 3.2 6.4 0.00 0.00 0.00 62 1014.6
20260902211530 33 282 3.2 6.4 0.00 0.00 0.00 61 1014.4
20260902211017 33 201 3.2 9.7 0.00 0.00 0.00 61 1014.4
20260902210514 33 306 4.8 9.7 0.00 0.00 0.00 62 1014.4
20260902210103 33 255 3.2 9.7 0.00 0.00 0.00 62 1014.6
20260902210049 33 304 3.2 9.7 0.00 0.00 0.00 62 1014.4
20260902205521 33 278 4.8 9.7 0.00 0.00 0.00 62 1014.4
20260902205016 33 287 3.2 8.0 0.00 0.00 0.00 60 1014.5
20260902204608 33 291 4.8 11.3 0.00 0.00 0.00 62 1014.8
20260902204535 33 281 4.8 11.3 0.00 0.00 0.00 61 1014.5
20260902204008 33 290 4.8 11.3 0.00 0.00 0.00 61 1014.5
20260902203508 33 290 3.2 12.9 0.00 0.00 0.00 63 1014.6
20260902203100 33 313 6.4 12.9 0.00 0.00 0.00 61 1014.7
20260902203024 33 240 6.4 12.9 0.00 0.00 0.00 61 1014.6
20260902202512 33 267 4.8 12.9 0.00 0.00 0.00 63 1014.6
20260902202014 33 283 4.8 9.7 0.00 0.00 0.00 62 1014.6
20260902201605 33 274 4.8 8.0 0.00 0.00 0.00 61 1014.8
20260902201504 33 298 4.8 8.0 0.00 0.00 0.00 61 1014.6
20260902201004 33 271 3.2 9.7 0.00 0.00 0.00 63 1014.7
20260902200505 33 252 3.2 9.7 0.00 0.00 0.00 63 1014.8
20260902200109 33 245 3.2 8.0 0.00 0.00 0.00 64 1014.9
20260902200013 33 278 3.2 8.0 0.00 0.00 0.00 63 1014.8
20260902195504 33 266 3.2 9.7 0.00 0.00 0.00 66 1014.9
20260902195004 33 263 3.2 9.7 0.00 0.00 0.00 63 1015.0
20260902194603 33 267 3.2 6.4 0.00 0.00 0.00 62 1015.1
20260902194515 33 298 3.2 6.4 0.00 0.00 0.00 60 1015.0
20260902194005 33 284 3.2 6.4 0.00 0.00 0.00 64 1015.0
20260902193508 33 289 3.2 8.0 0.00 0.00 0.00 65 1015.1
20260902193105 33 283 4.8 9.7 0.00 0.00 0.00 64 1015.3
20260902193019 33 274 4.8 9.7 0.00 0.00 0.00 61 1015.1
20260902192510 33 277 4.8 9.7 0.00 0.00 0.00 62 1015.2
20260902192011 33 280 4.8 11.3 0.00 0.00 0.00 64 1015.3
20260902191605 33 257 6.4 11.3 0.00 0.00 0.00 62 1015.3
20260902191529 33 264 6.4 11.3 0.00 0.00 0.00 61 1015.3
20260902191011 33 270 4.8 11.3 0.00 0.00 0.00 61 1015.3
20260902190513 33 258 4.8 11.3 0.00 0.00 0.00 63 1015.4
20260902190105 33 269 4.8 17.7 0.00 0.00 0.00 65 1015.7
20260902190006 33 233 4.8 17.7 0.00 0.00 0.00 64 1015.4
20260902185504 33 257 1.6 17.7 0.00 0.00 0.00 67 1015.5
20260902185004 33 297 8.0 14.5 0.00 0.00 0.00 61 1015.5
20260902184657 33 298 4.8 12.9 0.00 0.00 0.00 64 1015.7
20260902184518 33 287 4.8 12.9 0.00 0.00 0.00 64 1015.4
20260902184003 33 262 4.8 14.5 0.00 0.00 0.00 64 1015.5
20260902183504 33 285 6.4 14.5 0.00 0.00 0.00 62 1015.4
20260902183105 33 295 4.8 11.3 0.00 0.00 0.00 64 1015.7
20260902183018 33 293 4.8 11.3 0.00 0.00 0.00 66 1015.5
20260902182509 33 311 4.8 14.5 0.00 0.00 0.00 66 1015.5
20260902182007 33 298 6.4 14.5 0.00 0.00 0.00 64 1015.5
20260902181605 32 292 6.4 14.5 0.00 0.00 0.00 62 1015.6
20260902181520 32 297 8.0 14.5 0.00 0.00 0.00 64 1015.6
20260902181009 32 271 6.4 16.1 0.00 0.00 0.00 64 1015.7
20260902180511 32 292 8.0 16.1 0.00 0.00 0.00 63 1015.8
20260902180109 33 288 4.8 11.3 0.00 0.00 0.00 65 1015.8
20260902180024 33 277 4.8 11.3 0.00 0.00 0.00 66 1015.8
20260902175512 33 281 4.8 8.0 0.00 0.00 0.00 68 1015.7
20260902175015 33 240 3.2 9.7 0.00 0.00 0.00 68 1015.7
20260902174607 32 285 4.8 9.7 0.00 0.00 0.00 68 1015.7
20260902174507 32 280 4.8 9.7 0.00 0.00 0.00 68 1015.6
20260902174004 32 236 6.4 16.1 0.00 0.00 0.00 67 1015.7
20260902173505 32 293 4.8 16.1 0.00 0.00 0.00 68 1015.7
20260902173104 32 272 4.8 11.3 0.00 0.00 0.00 67 1015.9
20260902173010 32 247 4.8 11.3 0.00 0.00 0.00 68 1015.7
20260902172504 32 293 6.4 11.3 0.00 0.00 0.00 68 1015.7
20260902172006 32 272 6.4 11.3 0.00 0.00 0.00 68 1015.8
20260902171609 32 278 6.4 12.9 0.00 0.00 0.00 68 1015.9
20260902171521 32 246 6.4 12.9 0.00 0.00 0.00 67 1015.7
20260902171007 32 280 4.8 12.9 0.00 0.00 0.00 69 1015.8
20260902170508 32 257 6.4 9.7 0.00 0.00 0.00 69 1015.8
20260902170022 31 279 3.2 9.7 0.00 0.00 0.00 72 1015.9
20260902165513 31 256 4.8 9.7 0.00 0.00 0.00 71 1016.0
20260902165011 31 288 6.4 9.7 0.00 0.00 0.00 71 1016.0
20260902164603 31 281 3.2 8.0 0.00 0.00 0.00 72 1016.0
20260902164530 31 242 3.2 8.0 0.00 0.00 0.00 73 1016.0
20260902164015 31 283 4.8 8.0 0.00 0.00 0.00 71 1016.1
20260902163514 31 242 3.2 8.0 0.00 0.00 0.00 73 1016.2
20260902163100 30 281 3.2 9.7 0.00 0.00 0.00 72 1016.1
20260902163007 30 268 3.2 9.7 0.00 0.00 0.00 72 1016.2
20260902162504 30 290 6.4 11.3 0.00 0.00 0.00 70 1016.0
20260902162005 30 279 6.4 12.9 0.00 0.00 0.00 70 1016.2
20260902161611 30 287 6.4 14.5 0.00 0.00 0.00 70 1016.1
20260902161518 31 288 6.4 14.5 0.00 0.00 0.00 70 1016.2
20260902161013 30 300 6.4 14.5 0.00 0.00 0.00 71 1016.2
20260902160509 30 300 8.0 14.5 0.00 0.00 0.00 71 1016.2
20260902160059 30 233 6.4 11.3 0.00 0.00 0.00 72 1016.2
20260902160020 30 271 6.4 11.3 0.00 0.00 0.00 72 1016.2
20260902155509 30 265 4.8 11.3 0.00 0.00 0.00 73 1016.2
20260902155014 30 288 6.4 11.3 0.00 0.00 0.00 72 1016.2
20260902154602 30 290 6.4 12.9 0.00 0.00 0.00 73 1016.2
20260902154526 30 257 6.4 12.9 0.00 0.00 0.00 72 1016.2
20260902154011 30 283 6.4 12.9 0.00 0.00 0.00 71 1016.2
20260902153511 30 285 8.0 14.5 0.00 0.00 0.00 72 1016.2
20260902153114 30 278 6.4 14.5 0.00 0.00 0.00 73 1016.2
20260902153029 29 287 6.4 14.5 0.00 0.00 0.00 73 1016.2
20260902152515 29 288 6.4 12.9 0.00 0.00 0.00 73 1016.1
20260902152017 29 286 6.4 14.5 0.00 0.00 0.00 72 1016.0
20260902151603 29 297 4.8 14.5 0.00 0.00 0.00 73 1015.9
20260902151510 29 285 4.8 14.5 0.00 0.00 0.00 74 1016.0
20260902151004 28 231 6.4 14.5 0.00 0.00 0.00 75 1016.0
20260902150508 28 278 6.4 14.5 0.00 0.00 0.00 74 1016.0
20260902150015 28 259 6.4 14.5 0.00 0.00 0.00 76 1016.0
20260902145507 28 301 4.8 9.7 0.00 0.00 0.00 75 1016.0
20260902145008 28 269 4.8 9.7 0.00 0.00 0.00 75 1015.9
20260902144622 28 292 6.4 11.3 0.00 0.00 0.00 75 1015.9
20260902144531 28 289 6.4 11.3 0.00 0.00 0.00 76 1015.9
20260902144011 28 281 4.8 11.3 0.00 0.00 0.00 77 1015.9
20260902143509 28 290 6.4 11.3 0.00 0.00 0.00 76 1015.9
20260902143113 28 296 6.4 11.3 0.00 0.00 0.00 76 1015.9
20260902143025 28 283 6.4 11.3 0.00 0.00 0.00 76 1015.8
20260902142514 28 290 6.4 9.7 0.00 0.00 0.00 77 1015.8
20260902142014 28 274 4.8 9.7 0.00 0.00 0.00 78 1015.9
20260902141601 27 281 4.8 9.7 0.00 0.00 0.00 78 1015.8
20260902141536 27 266 4.8 9.7 0.00 0.00 0.00 78 1015.7
20260902141016 27 282 4.8 9.7 0.00 0.00 0.00 78 1015.9
20260902140516 27 253 4.8 9.7 0.00 0.00 0.00 79 1015.9
20260902140012 27 268 4.8 11.3 0.00 0.00 0.00 78 1016.0
20260902135508 27 311 4.8 11.3 0.00 0.00 0.00 78 1015.9
20260902135007 27 310 4.8 11.3 0.00 0.00 0.00 78 1015.9
20260902134603 27 280 4.8 9.7 0.00 0.00 0.00 79 1016.0
20260902134518 27 264 4.8 9.7 0.00 0.00 0.00 79 1015.9
20260902134007 26 267 4.8 9.7 0.00 0.00 0.00 80 1015.9
20260902133513 26 269 4.8 9.7 0.00 0.00 0.00 79 1016.0
20260902133101 26 290 4.8 8.0 0.00 0.00 0.00 79 1016.1
20260902133024 26 271 4.8 8.0 0.00 0.00 0.00 79 1016.1
20260902132516 26 280 4.8 8.0 0.00 0.00 0.00 79 1016.2
20260902132011 26 289 3.2 4.8 0.00 0.00 0.00 81 1016.2
20260902131600 26 278 1.6 6.4 0.00 0.00 0.00 82 1016.1
20260902131542 26 281 1.6 6.4 0.00 0.00 0.00 82 1016.1
20260902131013 26 288 3.2 6.4 0.00 0.00 0.00 83 1016.0
20260902130520 25 295 1.6 4.8 0.00 0.00 0.00 83 1016.1
20260902130100 25 281 1.6 6.4 0.00 0.00 0.00 84 1016.1
20260902130028 25 281 1.6 4.8 0.00 0.00 0.00 84 1016.2
20260902125517 25 295 3.2 6.4 0.00 0.00 0.00 84 1016.0
20260902125017 25 256 1.6 6.4 0.00 0.00 0.00 84 1016.1
20260902124610 25 274 1.6 4.8 0.00 0.00 0.00 84 1016.1
20260902124513 25 281 1.6 4.8 0.00 0.00 0.00 85 1016.0
20260902124006 25 240 1.6 4.8 0.00 0.00 0.00 85 1016.0
20260902123508 24 287 1.6 4.8 0.00 0.00 0.00 85 1016.0
20260902123104 24 246 3.2 4.8 0.00 0.00 0.00 85 1016.1
20260902123019 24 287 3.2 4.8 0.00 0.00 0.00 85 1016.1
20260902122511 24 290 1.6 4.8 0.00 0.00 0.00 85 1016.1
20260902122011 24 259 1.6 4.8 0.00 0.00 0.00 85 1016.1
20260902121612 23 270 1.6 4.8 0.00 0.00 0.00 86 1016.2
20260902121527 23 252 1.6 4.8 0.00 0.00 0.00 86 1016.2
20260902121011 23 274 1.6 4.8 0.00 0.00 0.00 86 1016.2
20260902120515 23 252 1.6 4.8 0.00 0.00 0.00 86 1016.1
20260902120111 23 241 1.6 4.8 0.00 0.00 0.00 87 1016.1
20260902120036 23 261 1.6 4.8 0.00 0.00 0.00 87 1016.0
20260902115514 23 285 1.6 4.8 0.00 0.00 0.00 87 1016.1
20260902115017 23 278 1.6 4.8 0.00 0.00 0.00 87 1016.0
20260902114618 23 293 1.6 4.8 0.00 0.00 0.00 87 1016.1
20260902114534 23 281 1.6 4.8 0.00 0.00 0.00 87 1016.2
20260902114006 23 238 1.6 4.8 0.00 0.00 0.00 88 1016.0
20260902113503 23 238 1.6 4.8 0.00 0.00 0.00 88 1016.0
20260902113102 23 217 1.6 4.8 0.00 0.00 0.00 88 1016.0
20260902113018 23 283 1.6 4.8 0.00 0.00 0.00 88 1016.0
20260902112510 23 195 1.6 6.4 0.00 0.00 0.00 88 1016.0
20260902112009 23 287 1.6 6.4 0.00 0.00 0.00 88 1016.0
20260902111605 23 303 1.6 4.8 0.00 0.00 0.00 88 1016.0
20260902111518 23 285 1.6 4.8 0.00 0.00 0.00 88 1016.0
20260902111006 23 276 1.6 6.4 0.00 0.00 0.00 88 1015.9
20260902110506 23 269 1.6 6.4 0.00 0.00 0.00 88 1015.8
20260902110114 23 311 0.0 4.8 0.00 0.00 0.00 88 1015.7
20260902110017 23 288 0.0 4.8 0.00 0.00 0.00 88 1015.8
20260902105509 23 321 1.6 4.8 0.00 0.00 0.00 88 1015.6
20260902105006 23 306 0.0 4.8 0.00 0.00 0.00 88 1015.7
20260902104604 23 283 1.6 6.4 0.00 0.00 0.00 88 1015.6
20260902104514 23 257 1.6 6.4 0.00 0.00 0.00 88 1015.7
20260902104004 23 249 1.6 6.4 0.00 0.00 0.00 88 1015.6
20260902103503 22 260 1.6 8.0 0.00 0.00 0.00 88 1015.8
20260902103120 22 272 1.6 8.0 0.00 0.00 0.00 88 1015.7
20260902103013 22 279 1.6 8.0 0.00 0.00 0.00 88 1015.8
20260902102506 22 276 1.6 4.8 0.00 0.00 0.00 88 1015.8
20260902102007 22 275 1.6 3.2 0.00 0.00 0.00 88 1015.7
20260902101600 22 252 1.6 4.8 0.00 0.00 0.00 88 1015.7
20260902101518 22 261 1.6 3.2 0.00 0.00 0.00 88 1015.7
20260902101006 22 289 0.0 4.8 0.00 0.00 0.00 88 1015.9
20260902100508 22 283 1.6 4.8 0.00 0.00 0.00 88 1015.8
20260902100104 22 281 1.6 3.2 0.00 0.00 0.00 88 1015.8
20260902100018 22 243 1.6 3.2 0.00 0.00 0.00 88 1015.7
20260902095510 22 295 1.6 4.8 0.00 0.00 0.00 88 1015.7
20260902095005 22 283 0.0 4.8 0.00 0.00 0.00 87 1015.7
20260902094602 23 278 1.6 4.8 0.00 0.00 0.00 87 1015.8
20260902094518 23 286 1.6 4.8 0.00 0.00 0.00 87 1015.8
20260902094012 23 277 1.6 3.2 0.00 0.00 0.00 87 1015.8
20260902093508 23 291 1.6 3.2 0.00 0.00 0.00 87 1015.7
20260902093111 23 247 1.6 4.8 0.00 0.00 0.00 87 1015.7
20260902093009 23 281 1.6 4.8 0.00 0.00 0.00 87 1015.7
20260902092504 23 258 1.6 4.8 0.00 0.00 0.00 87 1015.5
20260902092004 23 271 1.6 4.8 0.00 0.00 0.00 87 1015.5
20260902091559 23 270 1.6 3.2 0.00 0.00 0.00 87 1015.6
20260902091533 23 266 1.6 3.2 0.00 0.00 0.00 87 1015.6
20260902091007 23 250 1.6 3.2 0.00 0.00 0.00 87 1015.7
20260902090511 23 279 1.6 3.2 0.00 0.00 0.00 87 1015.5
20260902090020 23 306 1.6 4.8 0.00 0.00 0.00 87 1015.4
20260902085509 22 244 1.6 4.8 0.00 0.00 0.00 87 1015.4